IGO263 VECC-VOMM

Flight info

Callsign IGO263
Flight time N/A
Altitude 38000
Route KAKID2E KAKID A465 SADGU Q11 GURAS GURAS2F
Aircraft A20N/M-SDE2E3FGHIRWXY/LB1

Departure

Time 2026-04-30 14:39
Airport Netaji Subhash Chandra Bose International Airport (VECC)

Arrival

Time N/A
Airport Chennai International Airport (VOMM)
Time Latitude Longitude Altitude Speed Heading
2026-04-30 14:10 22.64079 88.44034 23 ft 0 kts 307°
2026-04-30 14:28 22.64073 88.44043 28 ft 3 kts 306°
2026-04-30 14:28 22.64060 88.44062 26 ft 3 kts 302°
2026-04-30 14:28 22.64049 88.44082 24 ft 3 kts 295°
2026-04-30 14:28 22.64042 88.44103 23 ft 3 kts 266°
2026-04-30 14:29 22.64047 88.44118 23 ft 1 kts 188°
2026-04-30 14:33 22.64033 88.44118 24 ft 4 kts 177°
2026-04-30 14:33 22.63936 88.44159 23 ft 11 kts 156°
2026-04-30 14:33 22.63872 88.44211 27 ft 12 kts 135°
2026-04-30 14:34 22.63902 88.44268 25 ft 11 kts 18°
2026-04-30 14:34 22.63990 88.44290 25 ft 14 kts 14°
2026-04-30 14:34 22.64025 88.44359 25 ft 11 kts 68°
2026-04-30 14:34 22.64076 88.44422 25 ft 12 kts 19°
2026-04-30 14:35 22.64211 88.44470 26 ft 11 kts 58°
2026-04-30 14:35 22.64241 88.44528 29 ft 0 kts 66°
2026-04-30 14:36 22.64242 88.44532 28 ft 2 kts 66°
2026-04-30 14:36 22.64243 88.44533 28 ft 0 kts 66°
2026-04-30 14:36 22.64245 88.44537 26 ft 2 kts 66°
2026-04-30 14:37 22.64253 88.44557 27 ft 4 kts 66°
2026-04-30 14:37 22.64273 88.44605 28 ft 7 kts 65°
2026-04-30 14:37 22.64312 88.44642 28 ft 9 kts 19°
2026-04-30 14:37 22.64428 88.44663 27 ft 39 kts
2026-04-30 14:38 22.64726 88.44697 26 ft 87 kts
2026-04-30 14:38 22.65515 88.44786 28 ft 141 kts
2026-04-30 14:38 22.66622 88.44896 199 ft 170 kts
2026-04-30 14:38 22.67864 88.44978 524 ft 189 kts
2026-04-30 14:39 22.69266 88.45098 793 ft 213 kts
2026-04-30 14:39 22.70778 88.44865 1112 ft 233 kts 336°
2026-04-30 14:39 22.72173 88.43812 1305 ft 260 kts 309°
2026-04-30 14:40 22.73207 88.39749 1335 ft 317 kts 258°
2026-04-30 14:40 22.72333 88.37484 1372 ft 339 kts 234°
2026-04-30 14:40 22.70565 88.35826 2084 ft 331 kts 208°
2026-04-30 14:40 22.68436 88.35127 3235 ft 315 kts 187°
2026-04-30 14:41 22.66285 88.35032 4355 ft 302 kts 185°
2026-04-30 14:41 22.64249 88.34755 5517 ft 288 kts 195°
2026-04-30 14:41 22.62382 88.34138 6716 ft 275 kts 204°
2026-04-30 14:41 22.60654 88.33274 7724 ft 274 kts 211°
2026-04-30 14:42 22.58996 88.32249 8666 ft 276 kts 214°
2026-04-30 14:42 22.57357 88.31138 9588 ft 279 kts 216°
2026-04-30 14:42 22.55706 88.29983 10300 ft 290 kts 216°
2026-04-30 14:42 22.53972 88.28762 10631 ft 313 kts 216°
2026-04-30 14:43 22.52083 88.27445 11033 ft 330 kts 214°
2026-04-30 14:43 22.49929 88.26520 11842 ft 339 kts 196°
2026-04-30 14:43 22.47597 88.26015 12707 ft 342 kts 194°
2026-04-30 14:43 22.45248 88.25544 13545 ft 345 kts 194°
2026-04-30 14:44 22.42875 88.25073 14302 ft 348 kts 194°
2026-04-30 14:44 22.40485 88.24594 15012 ft 352 kts 194°
2026-04-30 14:44 22.38067 88.24105 15726 ft 355 kts 194°
2026-04-30 14:44 22.35624 88.23607 16407 ft 359 kts 194°
2026-04-30 14:45 22.33153 88.23103 17086 ft 363 kts 194°
2026-04-30 14:45 22.30661 88.22593 17761 ft 367 kts 194°
2026-04-30 14:45 22.28138 88.22078 18369 ft 370 kts 194°
2026-04-30 14:45 22.25593 88.21558 18915 ft 375 kts 194°
2026-04-30 14:46 22.23015 88.21032 19461 ft 379 kts 194°
2026-04-30 14:46 22.20407 88.20500 19997 ft 383 kts 194°
2026-04-30 14:46 22.17806 88.19968 20526 ft 387 kts 194°
2026-04-30 14:46 22.15143 88.19422 21049 ft 391 kts 194°
2026-04-30 14:47 22.12450 88.18872 21570 ft 396 kts 194°
2026-04-30 14:47 22.09731 88.18317 22087 ft 400 kts 194°
2026-04-30 14:47 22.06985 88.17758 22593 ft 404 kts 194°
2026-04-30 14:47 22.04211 88.17193 23081 ft 408 kts 194°
2026-04-30 14:48 22.01401 88.16622 23549 ft 412 kts 194°
2026-04-30 14:48 21.98576 88.16047 23969 ft 415 kts 194°
2026-04-30 14:48 21.95723 88.15468 24394 ft 418 kts 194°
2026-04-30 14:48 21.92851 88.14884 24812 ft 421 kts 194°
2026-04-30 14:49 21.89962 88.14298 25214 ft 424 kts 194°
2026-04-30 14:49 21.87055 88.13708 25609 ft 427 kts 194°
2026-04-30 14:49 21.84134 88.13115 25996 ft 430 kts 194°
2026-04-30 14:49 21.81173 88.12515 26377 ft 432 kts 194°
2026-04-30 14:50 21.75230 88.11310 26984 ft 441 kts 194°
2026-04-30 14:50 21.72207 88.10698 27353 ft 444 kts 194°
2026-04-30 14:51 21.66132 88.09298 28006 ft 445 kts 203°
2026-04-30 14:51 21.63331 88.07927 28344 ft 442 kts 213°
2026-04-30 14:51 21.58672 88.03675 28941 ft 442 kts 228°
2026-04-30 14:52 21.56535 88.01286 29240 ft 444 kts 228°
2026-04-30 14:52 21.52132 87.96583 29827 ft 452 kts 220°
2026-04-30 14:52 21.49460 87.94765 30077 ft 458 kts 208°
2026-04-30 14:53 21.43215 87.93051 30438 ft 478 kts 185°
2026-04-30 14:53 21.39896 87.93130 30479 ft 488 kts 180°
2026-04-30 14:54 21.33075 87.93707 31010 ft 494 kts 175°
2026-04-30 14:54 21.26265 87.94728 31729 ft 493 kts 174°
2026-04-30 14:55 21.19455 87.95587 32424 ft 490 kts 180°
2026-04-30 14:55 21.16055 87.95669 32758 ft 488 kts 183°
2026-04-30 14:55 21.09308 87.95109 33272 ft 488 kts 190°
2026-04-30 14:56 21.02618 87.93993 33857 ft 484 kts 197°
2026-04-30 14:56 20.96200 87.91950 34414 ft 480 kts 201°
2026-04-30 14:57 20.93018 87.90860 34682 ft 479 kts 203°
2026-04-30 14:57 20.86961 87.88125 35197 ft 474 kts 210°
2026-04-30 14:58 20.81195 87.84772 35732 ft 469 kts 215°
2026-04-30 14:58 20.78403 87.82980 35980 ft 468 kts 216°
2026-04-30 14:58 20.72992 87.79109 36402 ft 467 kts 219°
2026-04-30 14:59 20.67671 87.75135 36946 ft 466 kts 219°
2026-04-30 15:00 20.60387 87.68527 37867 ft 452 kts 230°
2026-04-30 15:00 20.55870 87.63894 38427 ft 450 kts 230°
2026-04-30 15:01 20.51349 87.59278 38756 ft 449 kts 229°
2026-04-30 15:01 20.44588 87.52344 38808 ft 450 kts 230°
2026-04-30 15:02 20.40031 87.47688 38824 ft 457 kts 229°
2026-04-30 15:03 20.28586 87.35994 38811 ft 456 kts 229°
2026-04-30 15:04 20.17129 87.24274 38809 ft 456 kts 229°
2026-04-30 15:06 20.05677 87.12521 38816 ft 461 kts 229°
2026-04-30 15:07 19.96499 87.03055 38934 ft 461 kts 230°
2026-04-30 15:07 19.92204 86.98056 39270 ft 456 kts 234°
2026-04-30 15:08 19.88063 86.92952 39319 ft 457 kts 234°
2026-04-30 15:09 19.77667 86.80171 39316 ft 458 kts 234°
2026-04-30 15:10 19.69371 86.69751 39315 ft 463 kts 234°
2026-04-30 15:11 19.56956 86.54079 39311 ft 464 kts 234°
2026-04-30 15:13 19.46483 86.40985 39318 ft 464 kts 234°
2026-04-30 15:14 19.31946 86.22544 39316 ft 467 kts 234°
2026-04-30 15:17 19.13426 85.98574 39330 ft 467 kts 234°
2026-04-30 15:19 18.97091 85.77236 39312 ft 467 kts 234°